GRBBeta
1 60237U 24128C   26197.35397727  .00001619  00000-0  12123-3 0  9992
2 60237  61.9898 113.9204 0036897 140.9185 219.4584 15.06812637110668
Curium One
1 60242U 24128H   26197.45344989  .00003395  00000-0  20198-3 0  9995
2 60242  61.9785 102.0888 0036235 136.7950 223.5999 15.12874815110888
ROBUSTA-3A
1 60243U 24128J   26197.30273769  .00003645  00000-0  22081-3 0  9998
2 60243  61.9865 105.2566 0037973 133.9468 226.4772 15.11995770110827
CatSat
1 60246U 24125J   26197.12420885  .00047309  00000-0  52988-3 0  9995
2 60246  97.2052  50.0752 0020293  79.9538 280.4009 15.62305427111901
HYPERVIEW-1G (RS66S)
1 61772U 24199AP  26197.44027781  .00181228  00000-0  73436-3 0  9994
2 61772  97.2783  78.8351 0008338 145.1551 215.0267 15.85759155139295
AO-123
1 61781U 24199AY  26197.61349262  .00004352  00000-0  12588-3 0  9997
2 61781  97.2957  66.0211 0013160 195.3697 164.7150 15.36066366138447
JINJUSat 1B
1 63210U 25052A   26197.23986777  .00008759  00000-0  26552-3 0  9992
2 63210  97.3966  94.0471 0003067  25.9845 334.1551 15.34371285 74550
NUSHSAT 1
1 63211U 25052B   26197.23470822  .00010883  00000-0  30218-3 0  9997
2 63211  97.3945  94.7124 0003030  37.3334 322.8120 15.37066354 74603
TEVEL2-4
1 63213U 25052D   26197.25407118  .00010509  00000-0  30596-3 0  9993
2 63213  97.3866  93.7088 0003465  49.2372 310.9172 15.35589805 74571
TEVEL2-5
1 63214U 25052E   26197.40831625  .00009886  00000-0  28970-3 0  9994
2 63214  97.3863  93.8029 0003486  50.7727 309.3826 15.35404371 74593
TEVEL2-6
1 63215U 25052F   26196.50888836  .00011734  00000-0  34392-3 0  9991
2 63215  97.3871  92.8865 0003622  54.7007 305.4575 15.35351129 74452
TEVEL2-1
1 63217U 25052H   26197.20007266  .00009654  00000-0  28846-3 0  9996
2 63217  97.3839  93.1679 0004199  58.1893 301.9759 15.34794260 74547
TEVEL2-3
1 63218U 25052J   26197.25878627  .00009726  00000-0  29000-3 0  9992
2 63218  97.3845  93.2526 0003910  60.0682 300.0950 15.34858117 74551
TEVEL2-2
1 63219U 25052K   26197.26539011  .00009606  00000-0  28692-3 0  9998
2 63219  97.3837  93.2363 0004225  58.4463 301.7192 15.34806241 74557
TEVEL2-9
1 63237U 25052AD  26197.28109239  .00008804  00000-0  28055-3 0  9997
2 63237  97.3902  92.5623 0007595  54.2294 305.9653 15.32752256 74484
TEVEL2-7
1 63238U 25052AE  26197.19720289  .00008651  00000-0  27848-3 0  9991
2 63238  97.3901  92.3819 0007674  54.1249 306.0705 15.32434040 74462
TEVEL2-8
1 63239U 25052AF  26197.27103315  .00008714  00000-0  28060-3 0  9993
2 63239  97.3905  92.4323 0007735  55.0329 305.1638 15.32420655 74478
SPIRONE
1 66657U 25274H   26197.33014734  .00000859  00000-0  86664-4 0  9996
2 66657  97.7473 126.2064 0010401 279.0753  80.9290 14.93654192 34570
K-HERO
1 66660U 25274L   26197.25971823  .00000643  00000-0  65555-4 0  9999
2 66660  97.7480 126.3195 0012332 283.9681  76.0168 14.94062120 34572
SNUGLITE-III DURI
1 66661U 25274M   26197.51471761  .00000438  00000-0  46302-4 0  9996
2 66661  97.7478 126.5918 0012958 284.1822  75.7958 14.94092783 34615
SAKHACUBE-CHOLBON
1 67290U 25313AU  26197.48778032  .00005068  00000-0  20356-3 0  9990
2 67290  97.3924 272.1645 0007820 245.3272 114.7153 15.25373181 30448
RS95S (QMR-KWT-2)
1 67291U 25313AV  26197.18480658  .00006742  00000-0  25706-3 0  9996
2 67291  97.3921 272.1056 0007559 242.6037 117.4433 15.26990347 30418
Ten-Koh2
1 68261U 25241B   26197.32656999  .00002120  00000-0  99574-4 0  9994
2 68261  51.6581 180.9195 0004559 234.1196 125.9359 15.24178113 19358
JACK-002
1 68417U 26067B   26197.59646000  .00003210  00000-0  15346-3 0  9990
2 68417  97.4586 155.8333 0003130 131.8881 228.2622 15.19723876 16417
DISCO 2
1 68431U 26067R   26197.35958087  .00004178  00000-0  20017-3 0  9996
2 68431  97.4618 155.5885 0000772 164.2873 195.8386 15.19479497 16376
HADES-SA (SpinnyONE)
1 68446U 26067AG  26197.32774490  .00008740  00000-0  40859-3 0  9998
2 68446  97.4418 155.2096 0005847   0.5191 359.6049 15.20003401 16358
PARUS-6U1
1 68456U 26067AS  26197.39654761  .00002639  00000-0  13385-3 0  9999
2 68456  97.4571 155.3193 0004578 343.7005  16.4081 15.17800673 16361
SAL-E
1 68458U 26067AU  26197.32037144  .00003627  00000-0  18089-3 0  9998
2 68458  97.4496 155.1644 0005128 355.5367   4.5820 15.18147509 16353
FSI-SAT 2
1 68792U 26088A   26197.36941243  .00002362  00000-0  16138-3 0  9998
2 68792  97.5099 345.9048 0014396  13.3994 346.7613 15.07042915 12689
OrigamiSat 2
1 68795U 26088D   26197.40412892  .00005410  00000-0  34226-3 0  9994
2 68795  97.5107 346.1687 0013945 343.0813  16.9949 15.09338269 12709
ARICA 2
1 68796U 26088E   26197.41343632  .00001974  00000-0  12986-3 0  9991
2 68796  97.5100 346.1417 0014869 343.9009  16.1745 15.08635778 12706
WASEDA-SAT-ZERO-II
1 68797U 26088F   26197.40409964  .00002472  00000-0  16026-3 0  9995
2 68797  97.5094 346.1520 0014612 343.4721  16.6030 15.08936817 12706
MANGARO-II-Piscus
1 68798U 26088G   26197.39290728  .00001451  00000-0  95556-4 0  9992
2 68798  97.5101 346.1780 0018422 345.5667  14.5033 15.08970032 12706
IO-86
1 40931U          25360.30710720  .00000000  00000-0  12800-3 0    00
2 40931   6.0006 332.5373 0012733 338.8432   8.1437 14.79075515    01
LILIUM-4
1 71922C 26067AC  26089.50133053 -.00014632  00000+0 -74472-3 0    04
2 71922  97.4497  49.1617 0004341   5.9603 355.7042 15.16896692    16
